Flag for U.S.A. Weather past 2 weeks in Vancouver, Washington, U.S.A.

Now
72 °F

Clear.


Feels Like: 76 °F
Forecast: 64 / 83 °F
Wind: No wind

Location: Vancouver - Pearson Airpark

Current Time: Aug 3, 2015 at 2:12:50 AM

Latest Report: Aug 3, 2015 at 12:53 AM


Visibility: 10 mi

Pressure: 29.88 "Hg

Humidity: 61%

Dew point: 58 °F

Location of VancouverLocation

Historic Weather in Vancouver — Graph

°F

Vancouver temperature yesterday

Maximum temperature yesterday: 79 °F (at 4:53 PM)
Minimum temperature yesterday: 67 °F (at 3:53 AM)
Average temperature yesterday: 74 °F

Past Weeks' High & Low Weather Summary

 TemperatureHumidityPressure
High103 °F (Jul 30, 4:53 PM)93% (Jul 25, 9:53 AM)30.24 "Hg (Jul 25, 9:53 AM)
Low52 °F (Jul 27, 5:53 AM)10% (Jul 30, 3:53 PM)29.81 "Hg (Aug 1, 6:53 PM)
Average72 °F52%30.02 "Hg
* Reported Jul 19 12:53 AM — Aug 3 12:53 AM, Vancouver, Weather by CustomWeather, © 2015

Note: Actual official high and low records may vary slightly from our data, if they occured in-between our weather recording intervals... More about our weather records

Advertising

Vancouver weather history for previous 24 hours

 ConditionsComfort  
Time TempWeatherWind HumidityBarometerVisibility
12:53 AM
Mon, Aug 3
72 °FClear.No wind61%29.88 "Hg10 mi
11:53 PM
Sun, Aug 2
74 °FClear.3 mph56%29.88 "Hg10 mi
10:53 PM73 °FClear.3 mph59%29.88 "Hg10 mi
9:53 PM75 °FClear.No wind55%29.88 "Hg10 mi
8:53 PM76 °FSunny.No wind54%29.86 "Hg10 mi
7:53 PM77 °FSunny.No wind52%29.87 "Hg10 mi
6:53 PM79 °FSunny.No wind45%29.86 "Hg10 mi
5:53 PM79 °FScattered clouds.3 mph44%29.88 "Hg10 mi
4:53 PM79 °FSunny.No wind41%29.89 "Hg10 mi
3:53 PM78 °FPassing clouds.6 mph45%29.90 "Hg10 mi
2:53 PM77 °FSunny.5 mph44%29.91 "Hg10 mi
1:53 PM78 °FSunny.3 mph43%29.92 "Hg10 mi
12:53 PM77 °FSunny.5 mph45%29.93 "Hg10 mi
11:53 AM75 °FPassing clouds.6 mph45%29.93 "Hg10 mi
10:53 AM76 °FSunny.8 mph48%29.93 "Hg10 mi
9:53 AM76 °FSunny.5 mph45%29.92 "Hg10 mi
8:53 AM72 °FSunny.6 mph53%29.93 "Hg10 mi
7:53 AM68 °FSunny.6 mph63%29.93 "Hg10 mi
6:53 AM67 °FClear.3 mph63%29.90 "Hg10 mi
5:53 AM67 °FClear.No wind59%29.90 "Hg10 mi
4:53 AM69 °FPassing clouds.3 mph55%29.89 "Hg10 mi
3:53 AM67 °FClear.No wind63%29.88 "Hg10 mi
2:53 AM70 °FClear.No wind49%29.87 "Hg10 mi
Weather by CustomWeather, © 2015

See weather overviewHow to use our weather pages